Location: Tafessasset
(32.5899°N, 5.4824°W)
Time: 09:39:33
(UTC+00:00)

STARLINK-1114 - Pass Details

Date: 18 February 2020
Orbit: 548 x 551 km, 53.0° (Epoch: 29 March)

Event Time Altitude Azimuth Distance (km) Brightness Sun altitude
Exits shadow 04:18:20 15° 93° (E) 1,551 6.6 -35.2°
Drops below altitude 10° 04:19:27 10° 79° (E) 1,824 7.1 -35.0°
Enters shadow 05:22:48 -58° 226° (SW) 11,489 10.3 -21.6°
Maximum altitude 05:55:52 43° 318° (NW) 784 4.0 -14.7°
